Humidity-temperature Sensor

Selected Measurement Type: Relative Humidity

 
Relative Humidity [%]     6 entries per hour
Showing data from 4/6/2015 (00:00:00 Z) to 3/30/2015 (00:01:00 Z)
Previous Next [ Day | 3-Days | 7-Days ]
First Last
Prev [ Day | 3-Days | 7-Days ] Next
First Last

Start Time:     :
End Time:     :     
Time (in GMT) :00 :50 :40 :30 :20 :10
Previous Next [ Day | 3-Days | 7-Days ]
First Last
Prev [ Day | 3-Days | 7-Days ] Next
First Last


123 => good data
MM => data is determined as missing
-- => data not received/configured
Back to Top Back to Top
4/6/2015 00:00 to 23:10 80.27 81.72 81.99 83.30 81.99 81.95
4/5/2015 23:00 to 22:10 82.30 81.33 83.57 82.93 83.36 83.61
4/5/2015 22:00 to 21:10 82.55 82.68 83.74 84.84 84.88 84.80
4/5/2015 21:00 to 20:10 84.67 84.71 84.11 83.95 83.65 83.63
4/5/2015 20:00 to 19:10 83.86 83.36 83.72 84.07 84.09 83.90
4/5/2015 19:00 to 18:10 84.71 83.18 84.09 84.17 85.07 83.82
4/5/2015 18:00 to 17:10 84.36 83.47 83.80 83.72 84.22 84.19
4/5/2015 17:00 to 16:10 85.57 85.48 85.11 83.82 85.46 83.28
4/5/2015 16:00 to 15:10 83.99 84.76 84.57 84.65 86.73 85.32
4/5/2015 15:00 to 14:10 85.55 86.29 85.71 85.50 85.48 85.38
4/5/2015 14:00 to 13:10 85.44 88.54 88.39 87.96 89.10 87.60
4/5/2015 13:00 to 12:10 90.08 90.99 92.26 87.19 87.75 87.04
4/5/2015 12:00 to 11:10 86.71 87.08 89.00 88.79 88.29 89.25
4/5/2015 11:00 to 10:10 87.48 87.25 89.12 89.41 88.81 88.27
4/5/2015 10:00 to 9:10 88.10 88.14 88.04 87.27 88.41 86.67
4/5/2015 09:00 to 8:10 87.25 86.56 85.67 86.19 85.73 84.61
4/5/2015 08:00 to 7:10 86.02 86.69 86.75 87.11 85.96 86.07
4/5/2015 07:00 to 6:10 85.55 85.13 85.86 87.96 87.40 86.98
4/5/2015 06:00 to 5:10 86.48 84.61 86.21 85.32 83.43 84.07
4/5/2015 05:00 to 4:10 85.01 84.38 84.17 83.70 84.13 84.40
4/5/2015 04:00 to 3:10 85.19 84.38 84.74 85.42 85.07 85.34
4/5/2015 03:00 to 2:10 84.84 84.49 85.19 83.78 85.01 84.36
4/5/2015 02:00 to 1:10 83.97 83.45 87.52 86.34 85.15 84.76
4/5/2015 01:00 to 0:10 82.86 83.05 83.47 83.88 83.43 86.21
4/5/2015 00:00 to 23:10 83.70 82.37 81.87 81.18 81.91 81.58
4/4/2015 23:00 to 22:10 80.72 81.99 81.62 83.05 82.14 82.12
4/4/2015 22:00 to 21:10 82.57 83.63 84.55 85.63 86.50 86.07
4/4/2015 21:00 to 20:10 86.40 86.59 86.00 85.82 86.83 87.25
4/4/2015 20:00 to 19:10 87.48 86.90 86.71 85.94 86.73 86.86
4/4/2015 19:00 to 18:10 86.38 87.08 86.73 86.19 87.42 88.14
4/4/2015 18:00 to 17:10 90.39 89.62 89.12 88.17 87.17 86.48
4/4/2015 17:00 to 16:10 87.62 88.29 89.02 87.87 88.46 87.67
4/4/2015 16:00 to 15:10 87.21 88.02 88.68 91.10 92.03 92.01
4/4/2015 15:00 to 14:10 91.70 91.18 91.53 90.85 91.97 92.61
4/4/2015 14:00 to 13:10 93.22 92.55 91.43 93.26 94.28 98.33
4/4/2015 13:00 to 12:10 99.58 -- -- -- 98.66 96.96
4/4/2015 12:00 to 11:10 98.06 98.43 98.62 98.14 95.34 93.28
4/4/2015 11:00 to 10:10 93.34 93.05 92.61 93.47 93.28 92.14
4/4/2015 10:00 to 9:10 91.82 91.51 90.16 91.49 92.24 92.86
4/4/2015 09:00 to 8:10 93.63 94.92 96.36 97.17 97.46 97.54
4/4/2015 08:00 to 7:10 97.23 96.67 97.64 97.67 97.58 97.69
4/4/2015 07:00 to 6:10 97.64 98.10 98.37 98.77 98.16 95.13
4/4/2015 06:00 to 5:10 93.53 94.19 95.21 96.38 97.52 97.42
4/4/2015 05:00 to 4:10 96.04 92.22 88.96 88.41 87.87 87.29
4/4/2015 04:00 to 3:10 87.56 87.27 88.54 91.53 91.35 91.32
4/4/2015 03:00 to 2:10 89.83 89.62 89.93 89.64 89.87 89.10
4/4/2015 02:00 to 1:10 89.41 89.64 89.31 88.58 88.87 89.75
4/4/2015 01:00 to 0:10 89.08 88.33 88.00 88.50 86.38 88.21
4/4/2015 00:00 to 23:10 85.80 85.98 86.19 86.38 86.21 86.34
4/3/2015 23:00 to 22:10 86.44 86.92 86.48 85.88 85.92 85.38
4/3/2015 22:00 to 21:10 85.75 84.69 84.24 83.82 85.73 87.56
4/3/2015 21:00 to 20:10 89.18 92.20 91.99 91.41 90.06 89.68
4/3/2015 20:00 to 19:10 91.08 91.45 92.53 93.74 93.34 94.34
4/3/2015 19:00 to 18:10 94.32 94.07 91.39 86.65 84.38 85.42
4/3/2015 18:00 to 17:10 85.46 85.71 86.52 86.11 87.19 87.08
4/3/2015 17:00 to 16:10 86.07 85.59 87.27 87.71 86.94 85.73
4/3/2015 16:00 to 15:10 83.86 84.07 85.23 87.21 86.75 85.13
4/3/2015 15:00 to 14:10 86.29 86.09 86.50 86.92 86.25 86.25
4/3/2015 14:00 to 13:10 86.81 89.00 89.37 88.54 89.85 90.18
4/3/2015 13:00 to 12:10 89.89 89.93 89.66 89.77 89.81 89.72
4/3/2015 12:00 to 11:10 88.93 88.62 87.17 87.27 88.71 90.58
4/3/2015 11:00 to 10:10 90.74 90.37 90.02 90.37 90.31 90.22
4/3/2015 10:00 to 9:10 89.91 89.33 87.77 90.20 91.64 92.59
4/3/2015 09:00 to 8:10 90.49 86.48 87.62 86.65 86.50 86.11
4/3/2015 08:00 to 7:10 85.73 86.07 87.11 87.89 87.50 88.41
4/3/2015 07:00 to 6:10 87.42 87.40 88.44 89.06 87.98 87.38
4/3/2015 06:00 to 5:10 86.48 85.84 86.79 84.19 84.71 85.23
4/3/2015 05:00 to 4:10 84.49 83.86 83.45 83.18 83.45 83.70
4/3/2015 04:00 to 3:10 83.53 83.32 82.64 82.91 82.95 82.55
4/3/2015 03:00 to 2:10 83.59 82.93 83.13 82.34 82.53 80.43
4/3/2015 02:00 to 1:10 82.41 81.80 85.03 87.19 89.12 88.29
4/3/2015 01:00 to 0:10 88.02 84.47 83.95 84.19 85.23 85.88
4/3/2015 00:00 to 23:10 86.67 87.11 87.13 86.61 86.19 86.67
4/2/2015 23:00 to 22:10 85.55 88.56 90.16 89.37 87.44 87.52
4/2/2015 22:00 to 21:10 87.58 87.38 87.02 87.29 88.31 88.56
4/2/2015 21:00 to 20:10 88.17 87.11 87.25 86.71 86.02 86.71
4/2/2015 20:00 to 19:10 87.52 87.77 87.89 88.06 88.35 88.60
4/2/2015 19:00 to 18:10 88.91 88.98 89.06 89.12 89.45 89.43
4/2/2015 18:00 to 17:10 89.29 89.60 89.81 89.14 90.12 90.41
4/2/2015 17:00 to 16:10 90.45 90.66 91.72 93.22 94.34 94.34
4/2/2015 16:00 to 15:10 94.42 93.01 89.12 87.25 87.31 87.00
4/2/2015 15:00 to 14:10 87.58 87.50 87.69 87.40 86.29 85.75
4/2/2015 14:00 to 13:10 86.94 88.85 90.37 90.81 90.87 91.20
4/2/2015 13:00 to 12:10 91.08 90.39 89.06 88.14 88.10 89.56
4/2/2015 12:00 to 11:10 88.35 89.18 87.56 86.21 86.42 86.98
4/2/2015 11:00 to 10:10 86.29 86.63 86.96 87.19 87.44 87.35
4/2/2015 10:00 to 9:10 86.69 87.13 87.04 87.02 87.02 86.71
4/2/2015 09:00 to 8:10 87.19 86.98 86.88 86.96 87.65 87.60
4/2/2015 08:00 to 7:10 87.50 87.42 87.60 87.27 87.98 88.04
4/2/2015 07:00 to 6:10 88.06 88.06 87.69 87.35 87.81 87.21
4/2/2015 06:00 to 5:10 87.33 87.54 87.67 87.21 87.60 88.00
4/2/2015 05:00 to 4:10 88.56 88.39 88.12 87.89 87.77 87.17
4/2/2015 04:00 to 3:10 87.11 87.25 87.02 87.46 86.88 86.65
4/2/2015 03:00 to 2:10 86.98 87.29 87.23 86.38 85.98 85.90
4/2/2015 02:00 to 1:10 83.49 81.93 75.01 74.03 75.17 74.76
4/2/2015 01:00 to 0:10 75.07 75.69 76.05 75.73 75.51 75.55
4/2/2015 00:00 to 23:10 76.46 76.36 76.32 76.75 76.40 76.34
4/1/2015 23:00 to 22:10 77.44 79.04 80.58 80.54 80.56 80.52
4/1/2015 22:00 to 21:10 80.79 80.31 81.24 81.99 82.53 82.39
4/1/2015 21:00 to 20:10 81.68 79.70 77.48 78.46 76.92 77.85
4/1/2015 20:00 to 19:10 80.89 87.52 89.23 89.18 89.64 89.20
4/1/2015 19:00 to 18:10 85.38 82.59 82.59 82.91 84.03 81.45
4/1/2015 18:00 to 17:10 80.76 81.04 81.68 82.74 83.92 85.03
4/1/2015 17:00 to 16:10 84.86 85.86 85.11 85.98 86.69 86.19
4/1/2015 16:00 to 15:10 83.05 81.53 80.95 80.25 80.68 81.53
4/1/2015 15:00 to 14:10 83.51 84.36 81.51 83.53 84.07 84.86
4/1/2015 14:00 to 13:10 85.71 86.11 86.02 86.09 87.11 87.15
4/1/2015 13:00 to 12:10 88.35 89.31 89.33 90.24 90.78 91.37
4/1/2015 12:00 to 11:10 91.68 91.84 91.68 92.07 92.24 92.24
4/1/2015 11:00 to 10:10 91.53 91.39 91.32 92.51 93.94 93.80
4/1/2015 10:00 to 9:10 94.03 94.57 95.19 95.42 95.50 95.65
4/1/2015 09:00 to 8:10 96.00 96.25 97.06 97.35 97.17 97.15
4/1/2015 08:00 to 7:10 97.62 98.14 98.25 98.89 99.16 99.54
4/1/2015 07:00 to 6:10 99.79 99.56 99.54 99.52 99.27 98.39
4/1/2015 06:00 to 5:10 97.69 96.67 95.27 93.45 92.28 88.17
4/1/2015 05:00 to 4:10 86.02 85.21 85.38 84.78 80.76 81.70
4/1/2015 04:00 to 3:10 81.10 80.41 81.14 80.79 80.58 79.68
4/1/2015 03:00 to 2:10 78.54 79.06 80.18 80.89 80.79 81.16
4/1/2015 02:00 to 1:10 80.10 79.91 79.95 80.31 78.71 78.91
4/1/2015 01:00 to 0:10 79.10 79.06 78.52 79.25 81.20 82.47
4/1/2015 00:00 to 23:10 82.24 80.33 79.56 79.73 79.50 79.43
3/31/2015 23:00 to 22:10 78.91 79.41 79.87 80.35 79.79 81.06
3/31/2015 22:00 to 21:10 80.93 81.47 81.53 80.97 80.81 80.89
3/31/2015 21:00 to 20:10 80.72 81.22 81.62 82.64 84.03 83.18
3/31/2015 20:00 to 19:10 83.32 82.61 81.08 82.43 82.80 81.45
3/31/2015 19:00 to 18:10 84.15 85.19 84.17 84.07 83.05 81.60
3/31/2015 18:00 to 17:10 81.76 82.32 82.14 81.08 81.45 81.97
3/31/2015 17:00 to 16:10 82.64 83.63 84.51 83.90 83.20 80.83
3/31/2015 16:00 to 15:10 80.31 82.28 82.99 83.43 83.40 83.18
3/31/2015 15:00 to 14:10 82.86 84.44 83.74 84.42 85.07 84.76
3/31/2015 14:00 to 13:10 83.76 84.19 84.15 83.92 83.90 82.95
3/31/2015 13:00 to 12:10 81.76 82.34 81.24 82.32 82.53 81.89
3/31/2015 12:00 to 11:10 81.20 81.08 80.08 80.20 82.86 82.76
3/31/2015 11:00 to 10:10 83.78 85.17 87.06 86.52 86.21 85.80
3/31/2015 10:00 to 9:10 85.84 84.76 85.40 87.31 89.23 88.44
3/31/2015 09:00 to 8:10 89.54 89.12 89.66 89.83 90.29 90.41
3/31/2015 08:00 to 7:10 90.12 89.70 89.70 89.16 87.92 89.93
3/31/2015 07:00 to 6:10 90.83 91.68 91.39 92.11 92.18 91.74
3/31/2015 06:00 to 5:10 91.24 90.47 89.00 89.93 89.58 89.08
3/31/2015 05:00 to 4:10 88.50 87.65 88.29 88.75 89.00 88.37
3/31/2015 04:00 to 3:10 86.94 87.50 87.31 87.85 87.79 87.60
3/31/2015 03:00 to 2:10 88.31 88.44 88.73 89.43 90.10 90.70
3/31/2015 02:00 to 1:10 91.12 91.18 91.91 91.99 92.57 92.70
3/31/2015 01:00 to 0:10 93.03 93.76 94.01 93.96 94.30 94.82
3/31/2015 00:00 to 23:10 94.90 95.09 95.32 95.05 95.17 95.00
3/30/2015 23:00 to 22:10 94.73 93.40 93.53 91.78 93.51 94.53
3/30/2015 22:00 to 21:10 95.13 93.96 92.93 91.93 93.15 93.76
3/30/2015 21:00 to 20:10 94.09 93.11 92.26 92.53 92.32 90.76
3/30/2015 20:00 to 19:10 88.56 86.92 88.58 89.31 89.70 88.12
3/30/2015 19:00 to 18:10 87.83 90.45 90.78 90.93 92.01 93.88
3/30/2015 18:00 to 17:10 95.90 95.65 94.94 94.36 93.36 92.84
3/30/2015 17:00 to 16:10 92.45 92.49 92.34 91.72 91.43 91.12
3/30/2015 16:00 to 15:10 91.14 91.05 91.49 92.20 93.26 95.50
3/30/2015 15:00 to 14:10 94.82 94.67 94.38 90.72 90.16 84.80
3/30/2015 14:00 to 13:10 82.45 84.96 86.79 87.58 92.41 95.17
3/30/2015 13:00 to 12:10 97.12 97.15 92.09 88.56 87.92 87.17
3/30/2015 12:00 to 11:10 87.21 85.61 85.84 86.77 86.56 87.52
3/30/2015 11:00 to 10:10 87.71 89.70 85.48 87.21 86.13 85.28
3/30/2015 10:00 to 9:10 87.54 86.69 85.86 85.82 86.65 87.21
3/30/2015 09:00 to 8:10 86.15 86.50 85.28 86.00 86.86 86.02
3/30/2015 08:00 to 7:10 88.85 85.07 86.77 85.46 85.34 84.94
3/30/2015 07:00 to 6:10 88.93 92.39 93.38 92.68 92.20 92.03
3/30/2015 06:00 to 5:10 85.73 86.02 86.00 85.61 84.88 84.86
3/30/2015 05:00 to 4:10 84.30 85.42 86.73 87.98 87.96 88.39
3/30/2015 04:00 to 3:10 87.96 88.77 88.48 88.98 89.08 89.25
3/30/2015 03:00 to 2:10 89.06 89.12 91.12 92.07 90.45 90.35
3/30/2015 02:00 to 1:10 91.10 91.30 93.69 94.59 94.46 94.80
3/30/2015 01:00 to 0:10 96.09 97.42 97.44 96.60 93.80 83.90